SL-14 DEB, 45295

Orbit data source: Space-Track

SL-14 DEB, 45295 is space debris in LEO originally from a launch on Thu, 15 Aug 1991 UTC launched from the Plesetsk Missile And Space Complex (PKMTR). Debris objects in space refer to the collection of defunct objects orbiting the Earth. Examples of debris include non-operational satellites, rocket bodies, and fragments generated from explosions, collisions, or faulty payload assembly.

Loading next visibility...
Identifier
45295, 1991-056AH
Orbit
LEO
Country
Flag of CISCIS
Related business
Manufacturer
Unknown
Mission
Spacecraft
Bus & Motor
Unknown
Mass
Unknown
Launch date (UTC)
1991-08-15 (34 years ago)
Launch vehicle
Unknown
Launch site
Plesetsk Missile And Space Complex (PKMTR)
Object type
Payload
Rocket body
Debris
Shape & HBR
Unknown shape, 0.1 m
Radar Cross Section
Small (<0.1 m²)

Expand to show TLE details & history
Last TLE update: 4 days ago

TLE from 4 days ago
0 SL-14 DEB
1 45295U 91056AH  26032.83239121  .00001322  00000-0  23669-2 0  9994
2 45295  82.5715 185.3730 0089323 211.3880 148.1908 13.39571402289623
Epoch: 2026-02-01T19:58Z
TLE epoch observation values (Epoch: 2026-02-01T19:58:38.600Z)
Latitude
0.00006°
Longitude
113.6758°
Altitude
1,170.738 km
Speed
7.24 km/s
True Right ascension
12h 21m 29s
True Declination
0° 00' 00"
Sunlit
Object was in full shadow at epoch
Visualization orbit readout
Latitude
Unknown
Longitude
Unknown
Altitude
Unknown
Speed
Unknown
Apparent Right ascension
Unknown
Apparent Declination
Unknown
Sunlit
N/A
Visualization observer readout
Local Sidereal Time
23:36:42
Azimuth
Unknown
Elevation
Unknown
Doppler factor
Unknown
Orbital elements
Apogee altitude
1,174.957 km
Perigee altitude
1,041.219 km
Semi-major axis
7,486.225 km
Eccentricity
0.00893
Inclination
82.5715°
RAAN
185.373°
Arg. of periapsis
211.388°
True anomaly
148.72523°
Mean anomaly
148.1908°
Eccentric anomaly
148.45852°
Mean motion
3.3508 °/min
Orbital period
107.44 mins
BSTAR
0.0023669
Loading maneuver chart data...
Computing Atmospheric mass density...
Loading historical data...
Loading historical data...
Loading historical data...
Loading historical data...
Loading historical data...
Loading historical data...
Loading historical data...

Documentation

Showing up to 5 results
|